Weather reports worldwide

Advertisment
S. Maria Di Leuca, Italy (16360): temperature & dewpoint: 29.06.2020 12:00:00 - 05.07.2020 12:00:00 (CEST)S. Maria Di Leuca, Italy (16360): wind speed: 29.06.2020 12:00:00 - 05.07.2020 12:00:00 (CEST)S. Maria Di Leuca, Italy (16360): wind direction: 29.06.2020 12:00:00 - 05.07.2020 12:00:00 (CEST)S. Maria Di Leuca, Italy (16360): reduced air pressure: 29.06.2020 12:00:00 - 05.07.2020 12:00:00 (CEST)S. Maria Di Leuca, Italy (16360): visibility: 29.06.2020 12:00:00 - 05.07.2020 12:00:00 (CEST)S. Maria Di Leuca, Italy (16360): sunshine duration: 29.06.2020 12:00:00 - 05.07.2020 12:00:00 (CEST)
Date & Time tt [°C] td [°C] ff [km/h] ff [kn] dd ppp [hPa] vv [km] sd [min]
05.07.2020 12:00:00 26,2 18,1 22 12 N 1009,4 15 60
05.07.2020 11:00:00 26,2 18,1 26 14 N 1009,3 15 60
05.07.2020 10:00:00 26,0 18,9 26 14 N 1009,3 15 30
05.07.2020 09:00:00 23,6 18,3 21 11 N 1009,7 15 0
05.07.2020 08:00:00 22,4 18,8 16 9 N 1009,7 15 0
05.07.2020 07:00:00 - - - - - - - -
05.07.2020 06:00:00 - - - - - - - -
05.07.2020 05:00:00 - - - - - - - -
05.07.2020 04:00:00 - - - - - - - -
05.07.2020 03:00:00 - - - - - - - -
05.07.2020 02:00:00 - - - - - - - -
05.07.2020 01:00:00 - - - - - - - -
05.07.2020 00:00:00 - - - - - - - -
04.07.2020 23:00:00 - - - - - - - -
04.07.2020 22:00:00 - - - - - - - -
04.07.2020 21:00:00 - - - - - - - -
04.07.2020 20:00:00 24,0 17,0 16 9 N 1009,6 20 42
04.07.2020 19:00:00 25,0 18,5 24 13 N 1009,9 20 60
04.07.2020 18:00:00 24,0 19,5 26 14 N 1010,4 15 18
04.07.2020 17:00:00 27,0 20,6 16 9 WNW 1009,8 12 6
04.07.2020 16:00:00 27,0 24,1 16 9 WSW 1009,8 20 60
04.07.2020 15:00:00 30,0 23,2 11 6 WNW 1009,7 20 60
04.07.2020 14:00:00 30,0 22,7 11 6 WSW 1010,2 20 60
04.07.2020 13:00:00 30,0 22,2 4 2 WSW 1010,7 20 60
04.07.2020 12:00:00 28,4 23,5 15 8 NW 1010,8 20 60
04.07.2020 11:00:00 29,0 19,0 11 6 NNW 1010,5 20 60
04.07.2020 10:00:00 27,6 20,4 11 6 N 1010,6 20 60
04.07.2020 09:00:00 26,6 20,7 16 9 N 1010,2 20 60
04.07.2020 08:00:00 26,4 21,6 22 12 NNE 1010,2 20 60
04.07.2020 07:00:00 - - - - - - - -
04.07.2020 06:00:00 - - - - - - - -
04.07.2020 05:00:00 - - - - - - - -
04.07.2020 04:00:00 - - - - - - - -
04.07.2020 03:00:00 - - - - - - - -
04.07.2020 02:00:00 - - - - - - - -
04.07.2020 01:00:00 - - - - - - - -
04.07.2020 00:00:00 - - - - - - - -
03.07.2020 23:00:00 - - - - - - - -
03.07.2020 22:00:00 - - - - - - - -
03.07.2020 21:00:00 - - - - - - - -
03.07.2020 20:00:00 29,4 23,1 4 2 W 1008,8 30 30
03.07.2020 19:00:00 28,8 22,8 8 4 WSW 1008,4 30 60
03.07.2020 18:00:00 29,2 21,7 9 5 SW 1008,4 30 -
03.07.2020 17:00:00 30,0 23,4 8 4 SSW 1008,5 30 60
03.07.2020 16:00:00 29,0 22,5 11 6 SSW 1008,8 30 60
03.07.2020 15:00:00 31,8 23,3 11 6 ESE 1008,9 30 60
03.07.2020 14:00:00 30,8 23,0 11 6 S 1009,0 30 60
03.07.2020 13:00:00 29,4 22,9 9 5 S 1009,1 30 60
03.07.2020 12:00:00 29,8 23,0 8 4 SSE 1009,0 30 60
03.07.2020 11:00:00 28,6 21,6 9 5 SW 1008,9 30 60
03.07.2020 10:00:00 28,4 21,2 9 5 SSW 1008,8 30 60
03.07.2020 09:00:00 30,2 20,7 4 2 N 1008,5 30 60
03.07.2020 08:00:00 28,2 21,0 16 9 NNE 1008,5 30 60
03.07.2020 07:00:00 - - - - - - - -
03.07.2020 06:00:00 - - - - - - - -
03.07.2020 05:00:00 - - - - - - - -
03.07.2020 04:00:00 - - - - - - - -
03.07.2020 03:00:00 - - - - - - - -
03.07.2020 02:00:00 - - - - - - - -
03.07.2020 01:00:00 - - - - - - - -
03.07.2020 00:00:00 - - - - - - - -
02.07.2020 23:00:00 - - - - - - - -
02.07.2020 22:00:00 - - - - - - - -
02.07.2020 21:00:00 - - - - - - - -
02.07.2020 20:00:00 29,2 21,2 9 5 W 1008,6 20 6
02.07.2020 19:00:00 29,8 22,0 9 5 W 1008,5 30 60
02.07.2020 18:00:00 30,4 21,2 5 3 WSW 1008,5 30 60
02.07.2020 17:00:00 31,0 22,0 8 4 WSW 1009,0 30 60
02.07.2020 16:00:00 31,0 21,8 8 4 WSW 1009,2 30 60
02.07.2020 15:00:00 29,4 22,6 13 7 WSW 1009,5 30 60
02.07.2020 14:00:00 28,8 22,3 13 7 WSW 1010,1 30 60
02.07.2020 13:00:00 28,6 22,1 13 7 W 1010,3 30 60
02.07.2020 12:00:00 28,6 22,1 15 8 W 1010,2 30 60
02.07.2020 11:00:00 31,4 19,4 18 10 ENE 1009,9 25 60
02.07.2020 10:00:00 28,2 22,4 5 3 SSE 1010,5 20 60
02.07.2020 09:00:00 27,2 23,9 5 3 WSW 1010,4 20 60
02.07.2020 08:00:00 26,2 22,9 13 7 W 1010,4 20 60
02.07.2020 07:00:00 - - - - - - - -
02.07.2020 06:00:00 - - - - - - - -
02.07.2020 05:00:00 - - - - - - - -
02.07.2020 04:00:00 - - - - - - - -
02.07.2020 03:00:00 - - - - - - - -
02.07.2020 02:00:00 - - - - - - - -
02.07.2020 01:00:00 - - - - - - - -
02.07.2020 00:00:00 - - - - - - - -
01.07.2020 23:00:00 - - - - - - - -
01.07.2020 22:00:00 - - - - - - - -
01.07.2020 21:00:00 - - - - - - - -
01.07.2020 20:00:00 28,6 19,2 5 3 W 1010,3 15 60
01.07.2020 19:00:00 28,4 20,2 5 3 WSW 1010,7 15 60
01.07.2020 18:00:00 29,0 20,7 9 5 WSW 1010,6 15 60
01.07.2020 17:00:00 30,0 20,5 9 5 WSW 1010,8 15 60
01.07.2020 16:00:00 30,0 19,4 8 4 SW 1010,9 15 60
01.07.2020 15:00:00 30,0 16,4 9 5 NNW 1011,1 15 60
01.07.2020 14:00:00 28,2 16,2 9 5 SW 1011,2 15 60
01.07.2020 13:00:00 - - 9 5 SW 1012,8 15 60
01.07.2020 12:00:00 - - 9 5 WSW 1012,8 15 60
01.07.2020 11:00:00 - - 9 5 WSW 1012,8 15 60
01.07.2020 10:00:00 - - 11 6 W 1013,0 15 60
01.07.2020 09:00:00 - - 11 6 ENE 1012,7 15 60
01.07.2020 08:00:00 - - 11 6 NNE 1012,8 15 60
01.07.2020 07:00:00 - - - - - - - -
01.07.2020 06:00:00 - - - - - - - -
01.07.2020 05:00:00 - - - - - - - -
01.07.2020 04:00:00 - - - - - - - -
01.07.2020 03:00:00 - - - - - - - -
01.07.2020 02:00:00 - - - - - - - -
01.07.2020 01:00:00 - - - - - - - -
01.07.2020 00:00:00 - - - - - - - -
30.06.2020 23:00:00 - - - - - - - -
30.06.2020 22:00:00 - - - - - - - -
30.06.2020 21:00:00 - - - - - - - -
30.06.2020 20:00:00 - - 5 3 W 1012,1 15 60
30.06.2020 19:00:00 - - 5 3 W 1012,3 15 60
30.06.2020 18:00:00 - - 9 5 W 1012,2 15 60
30.06.2020 17:00:00 - - 13 7 NE 1012,3 15 60
30.06.2020 16:00:00 - - 11 6 NE 1012,7 15 60
30.06.2020 15:00:00 - - 11 6 NE 1013,1 15 60
30.06.2020 14:00:00 - - 8 4 SSE 1013,2 15 60
30.06.2020 13:00:00 - - 8 4 ENE 1013,2 15 60
30.06.2020 12:00:00 - - 9 5 WSW 1013,1 15 60
30.06.2020 11:00:00 0,0 - 9 5 SW 1012,9 15 60
30.06.2020 10:00:00 - - 5 3 SSW 1013,5 15 60
30.06.2020 09:00:00 - - 8 4 ENE 1013,1 15 60
30.06.2020 08:00:00 - - 8 4 NNE 1012,8 15 60
30.06.2020 07:00:00 - - - - - - - -
30.06.2020 06:00:00 - - - - - - - -
30.06.2020 05:00:00 - - - - - - - -
30.06.2020 04:00:00 - - - - - - - -
30.06.2020 03:00:00 - - - - - - - -
30.06.2020 02:00:00 - - - - - - - -
30.06.2020 01:00:00 - - - - - - - -
30.06.2020 00:00:00 - - - - - - - -
29.06.2020 23:00:00 - - - - - - - -
29.06.2020 22:00:00 - - - - - - - -
29.06.2020 21:00:00 - - - - - - - -
29.06.2020 20:00:00 - - 8 4 WSW 1012,1 20 60
29.06.2020 19:00:00 - - 9 5 SW 1012,1 20 60
29.06.2020 18:00:00 - - 8 4 SSW 1012,1 20 60
29.06.2020 17:00:00 - - 8 4 SSW 1012,6 20 60
29.06.2020 16:00:00 - - 11 6 SW 1013,1 20 60
29.06.2020 15:00:00 - - 9 5 SW - 20 60
29.06.2020 14:00:00 - - 8 4 WSW 1013,7 20 60
29.06.2020 13:00:00 - - 8 4 WSW 1014,0 20 60
29.06.2020 12:00:00 27,4 18,4 8 4 WSW 1012,8 20 60

tt = temperature
td = dewpoint
ff = wind speed
dd = wind direction
ppp = reduced air pressure
vv = visibility
sd = sunshine duration

Next stations